Volver al catálogo

THORAD AGENA D DEB

ActivoSSO
NORAD 42506·DEBRIS·🇺🇸 United States

Lanzado Apr 8, 1970 desde Vandenberg Space Force Base

Loading…

Próximos Pases (próximas 24 horas)

TLE

EnvejeciendoSource: Space-Track

Época: Sep 11, 2026, 10:16 UTC

1 42506U 70025RL  26254.42839470  .00000198  00000-0  22557-3 0  9999
2 42506  99.5566 331.1954 0050582  85.6937 274.9993 13.81671533294795

Sigue THORAD AGENA D DEB en tiempo real con AllMySat

Download on the App Store